Regional Weather Roundup
Issued by NWS Midland/Odessa, TX

Skip options and go directly to product.
Home | Oldest Version | Previous Version | Current Version | All | Graphics & Text | Save Text | Print | Product List | Glossary On

Skip product version selection by date and time.   
197
ASUS44 KMAF 301110
RWRMAF
MIDLAND AREA WEATHER ROUNDUP
NATIONAL WEATHER SERVICE MIDLAND TX
600 AM CDT SAT JUL 30 2016

...IN SOUTHWEST TEXAS AND SOUTHEAST NEW MEXICO...

CITY           SKY/WX    TMP DP  RH WIND       PRES   REMARKS
ALPINE         CLEAR     64  58  81 SW3       30.19S
ANDREWS        FAIR      72  65  79 S6        30.08F
ARTESIA        CLEAR     72  59  64 S9        30.07F
BIG SPRING     PTCLDY    74  64  70 S8        30.09S
CARLSBAD       CLEAR     71  57  61 SE6       30.05S
DRYDEN           N/A     72  66  81 NE3       30.01S
FORT STOCKTON  CLEAR     71  62  73 SE3       30.07R
GUAD PASS      CLEAR     67  57  70 E6        30.19F
HOBBS          CLEAR     70  63  78 CALM      30.11S HAZE
MARFA          CLEAR     58  57  97 NE6       30.17F
MIDLAND AIRPK  CLEAR     75  64  67 S7        30.08S
MIDLAND INTL   CLEAR     74  64  71 S6        30.07R
ODESSA         CLEAR     76  64  66 S7        30.08S
PECOS          CLEAR     72  62  70 E7        30.03S
PRESIDIO       FAIR      73  62  66 CALM      30.04S
SEMINOLE       CLEAR     73  63  70 CALM      30.10F
SNYDER           N/A     74  62  67 S6        30.06S
WINK           CLEAR     74  64  71 SE8       30.04S
$$
...OTHER STATIONS IN TEXAS...

CITY           SKY/WX    TMP DP  RH WIND       PRES   REMARKS
ABILENE        PTCLDY    76  64  66 SW7       30.03R
AMARILLO       MOCLDY    70  57  63 NE12      30.08R
AUSTIN         PTCLDY    74  73  97 S3        30.01S
BROWNSVILLE    CLEAR     78  76  93 CALM      29.96S
CORPUS CHRISTI PTCLDY    78  76  93 SE6       29.98R
DALLAS FTW     PTCLDY    82  70  66 SW10      29.97R
DEL RIO        CLOUDY    76  68  76 SE7       29.99S
EL PASO        MOCLDY    76  61  59 SE10      30.06S
HOUSTON INT    PTCLDY    77  75  93 CALM      30.01S
LUBBOCK        CLOUDY    69  59  70 E7        30.06F
SAN ANGELO     CLOUDY    76  67  73 SW5       30.03S
SAN ANTONIO    PTCLDY    77  74  90 S5        30.02S
WACO           CLOUDY    79  72  79 S9        30.00R
WICHITA FALLS  NOT AVBL
$$
...OTHER LOCATIONS IN NEW MEXICO...

CITY           SKY/WX    TMP DP  RH WIND       PRES   REMARKS
ALAMAGORDO     CLOUDY    77  55  47 S9        30.09S
ALBUQUERQUE    CLOUDY    67  56  67 N5        30.16F
CANNON AFB     CLEAR     64  63  96 W6        30.13R
CLOVIS         CLEAR     64  57  77 W6        30.12S
HOLLOMAN AFB   CLOUDY    77  58  50 S13       30.06F
ROSWELL        MOCLDY    73  57  57 S5        30.07S
RUIDOSO          N/A     64  50  59 SE3       30.30S
SANTA FE       CLOUDY    64  45  49 SE9       30.24S
TRUTH OR CONSE MOCLDY    71  52  50 CALM      30.11S
TUCUMCARI      CLOUDY    63  60  90 W6        30.11S
$$

USA.gov is the U.S. government's official web portal to all federal, state and local government web resources and services.